Content
SEND FEEDBACK

Daily
Averages
Monthly
Summary
Bolivia

ACHOCALLA, BOLIVIA


Home > South America > Bolivia
Elevation: 13248 feet     Latitude: 16 31S     Longitude: 068 10W

WEATHER
 
SELECT A DAY
Number of Records: 173,165;   Date Range: 6/30/96 - 10/19/14
 
SHARE

PRINT THIS DATA

[ ← Previous Day ]
WEATHER ALMANAC - AUGUST 7, 2014
[ Next Day → ]
[ °C ]   °F
Weather ElementAverageHighLow
Temperature41.9 °F57.2 °F (3:00 pm)26.6 °F (2:00 am)
Dewpoint29.1 °F35.6 °F (11:00 am)19.4 °F (2:00 am)
Humidity62.7 %93 % (5:00 am)18 % (5:00 pm)
Barometer30.62 in30.66 in (9:00 am)30.54 in (4:00 pm)
Wind Speed10.2 mph19.6 mph (2:00 pm)
Wind Gust31.1 mph (3:00 pm)
Weather ElementAverage
Visibility6.1 mi
Wind DirectionE (85.7 °)

Weather ElementTotal
Precipitation---
Heating Degree Days23.1 (Base 65)
Averaged from 31 records on August 7, 2014
WEATHER CONDITIONS BREAKOUT
WIND DIRECTION BREAKOUT
WEATHER BY HOUR - AUGUST 7, 2014
[ °C ]   °F
Local TimeTemperatureDewpointHumidityBarometerVisibilityWind DirectionWind SpeedGust SpeedPrecipitationEventsConditions
12:00 AM33.8 °F30.2 °F87 %30.63 in6.2 miEast (80°)8.1 mphPartly Cloudy
1:00 AM30.2 °F24.8 °F80 %30.63 in6.2 miEast (100°)3.5 mphPartly Cloudy
2:00 AM27.0 °F20.0 °F64 %12.0 miEast (80°)5.8 mphScattered Clouds
2:00 AM26.6 °F19.4 °F74 %30.63 in6.2 miEast (80°)5.8 mphPartly Cloudy
3:00 AM33.8 °F19.4 °F56 %30.60 in6.2 miNNE (30°)5.8 mph
5:00 AM32.0 °F30.0 °F90 %2.0 miEast (90°)9.2 mphFogLight Fog
5:00 AM32.0 °F30.2 °F93 %30.60 in2.5 miEast (90°)9.2 mphFogFog
6:00 AM32.0 °F30.2 °F93 %30.60 in2.5 miEast (90°)9.2 mphFogFog
7:00 AM30.2 °F28.4 °F93 %30.63 in2.5 miEast (90°)8.1 mphFogFog
8:00 AM36.0 °F34.0 °F87 %2.0 miEast (80°)4.6 mphFogLight Fog
8:00 AM35.6 °F33.8 °F93 %30.63 in2.5 miEast (80°)4.6 mphFogFog
9:00 AM41.0 °F30.2 °F65 %30.66 in3.7 miEast (100°)6.9 mphPartly Cloudy
10:00 AM44.6 °F33.8 °F66 %30.66 in6.2 miEast (100°)5.8 mphPartly Cloudy
11:00 AM47.0 °F35.0 °F51 %6.0 miSE (130°)11.5 mphHaze
11:00 AM48.2 °F35.6 °F62 %30.66 in6.2 miSE (130°)11.5 mphPartly Cloudy
12:00 PM50.0 °F33.8 °F54 %30.66 in6.2 miESE (110°)11.5 mphPartly Cloudy
1:00 PM51.8 °F33.8 °F50 %30.63 in6.2 miESE (110°)15.0 mphPartly Cloudy
2:00 PM54.0 °F27.0 °F23 %9.0 miEast (100°)19.6 mphSmoke
2:00 PM53.6 °F26.6 °F35 %30.60 in6.2 miEast (100°)19.6 mphPartly Cloudy
3:00 PM57.2 °F23.0 °F27 %30.57 in6.2 miENE (70°)17.3 mph31.1 mphPartly Cloudy
4:00 PM57.2 °F23.0 °F27 %30.54 in6.2 miNNE (20°)15.0 mph27.6 mphScattered Clouds
5:00 PM55.0 °F24.0 °F18 %12.0 miNE (50°)16.1 mphPartly Cloudy
5:00 PM55.4 °F23.0 °F29 %30.54 in6.2 miNE (50°)16.1 mphPartly Cloudy
6:00 PM50.0 °F30.2 °F47 %30.57 in6.2 miEast (80°)16.1 mphPartly Cloudy
7:00 PM44.6 °F30.2 °F57 %30.60 in6.2 miEast (90°)18.4 mphPartly Cloudy
8:00 PM42.0 °F32.0 °F58 %9.0 miESE (110°)11.5 mphScattered Clouds
8:00 PM42.8 °F32.0 °F66 %30.60 in6.2 miESE (110°)11.5 mphPartly Cloudy
9:00 PM41.0 °F32.0 °F70 %30.63 in6.2 miSE (130°)4.6 mphPartly Cloudy
10:00 PM39.2 °F30.2 °F70 %30.66 in6.2 miEast (90°)9.2 mphPartly Cloudy
11:00 PM37.0 °F33.0 °F78 %12.0 mi°2.3 mphScattered Clouds
11:00 PM37.4 °F32.0 °F81 %30.66 in6.2 miVariable2.3 mphPartly Cloudy
Hourly data recorded from SLLP, located miles away from Achocalla, Bolivia







STORIES FROM OUR PARTNERS